Terminal Aerodrome Forecast
Issued by NWS

Home | Current Version | Previous Version | Text Only | Print | Product List | Glossary On
Versions: 1 2 3 4 5 6 7 8 9 10 11 12 13 14 15 16 17 18
000
FTUS44 KTSA 050520
TAFXNA
TAF
KXNA 050520Z 0506/0606 14004KT P6SM FEW040
     FM050800 00000KT 4SM BR OVC008
     FM051800 18008KT P6SM VCTS SCT050CB BKN150
     FM060100 17005KT P6SM BKN200=

USA.gov is the U.S. government's official web portal to all federal, state and local government web resources and services.